Tulsa, OK

6:50 PM CDT on August 28, 2016 (GMT -0500)
Tulsa International

Weather History for KTUL - July, 2012

Change the Weather History Date:

Sunday, July 15, 2012

  Actual Average Record
Temperature  
Mean Temperature 81 °F 83 °F  
Max Temperature 95 °F 93 °F 111 °F (1936)
Min Temperature 66 °F 73 °F 54 °F (1967)
Cooling Degree Days 16 18  
Month to date cooling degree days 318 260  
Year to date cooling degree days 1276 873  
Since 1 June cooling degree days 800 639  
Growing Degree Days 30 (Base 50)    
Moisture  
Dew Point 66 °F    
Average Humidity 66    
Maximum Humidity 93    
Minimum Humidity 39    
Precipitation  
Precipitation 0.00 in 0.12 in 3.91 in (1961)
Month to date precipitation 1.00 1.77  
Year to date precipitation 18.55 22.99  
Sea Level Pressure  
Sea Level Pressure 29.98 in    
Wind  
Wind Speed 5 mph (SE)    
Max Wind Speed 22 mph    
Max Gust Speed 26 mph    
Visibility 10 miles    
Events      
T = Trace of Precipitation, MM = Missing Value Source: NWS Daily Summary

Daily Weather History Graph

Daily Weather History Graph

Search for Another Location

Airport or City:

Trip Planner

Search our weather history database for the weather conditions in past years. The results will help you decide how hot, cold, wet, or windy it might be!

Date:

Astronomy

Jul. 15, 2012 Rise Set
Actual Time 6:18 AM CDT 8:40 PM CDT
Civil Twilight 5:48 AM CDT 9:10 PM CDT
Nautical Twilight 5:12 AM CDT 9:46 PM CDT
Astronomical Twilight 4:32 AM CDT 10:26 PM CDT
Moon 3:15 AM CDT (7/15) 5:58 PM CDT (7/15)
Length of Visible Light 15h 21m
Length of Day
14h 22m
Waning Crescent, 11% of the Moon is Illuminated
Jul 15
Waning Crescent
Jul 18
New
Jul 26
First Quarter
Aug 1
Full
Aug 9
Last Quarter

Hourly Weather History & Observations

Time (CDT) Temp. Heat Index Dew Point Humidity Pressure Visibility Wind Dir Wind Speed Gust Speed Precip Events Conditions
12:53 AM 72.0 °F - 64.0 °F 76% 29.98 in 10.0 mi ESE 5.8 mph - N/A   Clear
1:53 AM 73.0 °F - 64.0 °F 73% 29.98 in 10.0 mi Calm Calm - N/A   Clear
2:53 AM 70.0 °F - 64.9 °F 84% 29.99 in 10.0 mi ESE 5.8 mph - N/A   Clear
3:53 AM 69.1 °F - 64.9 °F 87% 29.99 in 10.0 mi ESE 5.8 mph - N/A   Clear
4:53 AM 69.1 °F - 64.9 °F 87% 30.00 in 10.0 mi ESE 3.5 mph - N/A   Clear
5:53 AM 69.1 °F - 64.9 °F 87% 29.99 in 10.0 mi Calm Calm - N/A   Clear
6:53 AM 66.0 °F - 64.9 °F 96% 30.02 in 9.0 mi ESE 4.6 mph - N/A   Clear
7:53 AM 71.1 °F - 66.9 °F 87% 30.04 in 10.0 mi ESE 3.5 mph - N/A   Clear
8:53 AM 75.0 °F - 66.9 °F 76% 30.05 in 10.0 mi SSE 4.6 mph - N/A   Clear
9:53 AM 79.0 °F - 64.9 °F 62% 30.04 in 10.0 mi SSE 6.9 mph - N/A   Clear
10:53 AM 82.0 °F 84.1 °F 66.0 °F 58% 30.04 in 10.0 mi South 6.9 mph - N/A   Clear
11:53 AM 84.9 °F 87.6 °F 66.9 °F 55% 30.03 in 10.0 mi South 8.1 mph - N/A   Partly Cloudy
12:53 PM 87.1 °F 89.2 °F 66.0 °F 49% 30.01 in 10.0 mi Variable 4.6 mph - N/A   Partly Cloudy
1:53 PM 90.0 °F 91.7 °F 64.9 °F 43% 29.98 in 10.0 mi ESE 6.9 mph - N/A   Partly Cloudy
2:53 PM 91.0 °F 93.0 °F 64.9 °F 42% 29.95 in 10.0 mi Variable 4.6 mph - N/A   Mostly Cloudy
3:53 PM 91.9 °F 94.1 °F 64.9 °F 41% 29.94 in 10.0 mi ESE 6.9 mph - N/A   Partly Cloudy
4:53 PM 93.9 °F 96.1 °F 64.9 °F 38% 29.92 in 10.0 mi ESE 8.1 mph - N/A   Partly Cloudy
5:53 PM 93.0 °F 94.6 °F 64.0 °F 38% 29.90 in 10.0 mi SE 12.7 mph - N/A   Scattered Clouds
6:53 PM 87.1 °F 89.9 °F 66.9 °F 51% 29.92 in 10.0 mi SSE 17.3 mph - N/A   Scattered Clouds
7:53 PM 82.4 °F 85.4 °F 68.0 °F 62% 29.95 in 10.0 mi ESE 6.9 mph - N/A   Scattered Clouds
8:53 PM 80.1 °F 82.9 °F 69.1 °F 69% 29.94 in 10.0 mi East 5.8 mph - N/A   Partly Cloudy
9:53 PM 79.0 °F - 70.0 °F 74% 29.95 in 10.0 mi Calm Calm - N/A   Clear
10:53 PM 78.1 °F - 69.1 °F 74% 29.95 in 10.0 mi SE 3.5 mph - N/A   Clear
11:53 PM 77.0 °F - 69.1 °F 76% 29.95 in 10.0 mi Calm Calm - N/A   Clear